Location: Poughquag
(41.6090°N, 73.6820°W)
Time: 15:43:40
(UTC-04:00)

STARLINK-1324 - Pass Details

Date: 29 May 2020
Orbit: 549 x 550 km, 53.0° (Epoch: 30 October)

Event Time Altitude Azimuth Distance (km) Brightness Sun altitude
Rises 04:36:47 0° 310° (NW) 2,723 7.0 -8.1°
Reaches altitude 10° 04:39:20 10° 323° (NW) 1,828 6.3 -7.8°
Maximum altitude 04:42:49 25° 20° (NNE) 1,133 6.0 -7.2°
Drops below altitude 10° 04:46:16 10° 77° (ENE) 1,824 7.5 -6.7°
Sets 04:48:49 0° 91° (E) 2,716 8.1 -6.3°
